www.pogodaiklimat.ru
ПОГОДА в Ельне
Время
(UTC), дата
03 5.08
06 5.08
09 5.08
12 5.08
15 5.08
18 5.08
21 5.08
00 6.08
03 6.08
06 6.08
09 6.08
12 6.08
15 6.08
18 6.08
21 6.08
00 7.08
03 7.08
06 7.08
09 7.08
12 7.08
15 7.08
18 7.08
21 7.08
00 8.08
03 8.08
06 8.08
09 8.08
12 8.08
15 8.08
18 8.08
21 8.08
00 9.08
03 9.08
06 9.08
09 9.08
12 9.08
15 9.08
18 9.08
21 9.08
00 10.08
03 10.08
06 10.08
09 10.08
12 10.08
15 10.08
18 10.08
21 10.08
00 11.08
03 11.08
06 11.08
09 11.08
12 11.08
15 11.08
18 11.08
21 11.08
00 12.08
Ветер
(напр.,м/с)
Видим. Явления Облачность Т
(С)
Тd
(С)
f
(%)
Тe
(С)
Тes
(С)
Комфортность P
(гПа)
Po
(гПа)
Тmin
(С)
Tmax
(С)
R
(мм)
R24
(мм)
S
(см)
ЮВ 1 20 км 9/0
[Ac lent Ci fib]
+11.8 +10.8 94 +12 +12 1018.8 990.9 +11.5
Ю 1 20 км 8/0
[Ci fib]
+21.1 +13.7 63 +24 +30 комфорт 1018.0 991.0 +11.5
Ю 4 20 км 9/0
[Ac lent Ci fib]
+25.4 +12.6 45 +27 +32 жарко 1018.0 991.4
Ю 3 20 км 9/0
[Ci fib]
+26.9 +12.8 42 +29 +36 жарко 1017.7 991.2
Ю 1 20 км 9/0
[Ac lent Ci fib]
+26.0 +14.7 50 +29 +30 душно 1017.8 991.3
ЮВ 1 20 км 8/0
[Ac lent Ci fib]
+20.2 +16.4 79 +24 +24 комфорт 1019.0 992.0 +27.3
штиль 0 10 км 6/0
[Ci fib]
+15.5 +14.6 94 +15 +15 1020.3 992.8
ЮВ 1 10 км местами туман поземный 8/0
[Ci fib]
+14.7 +13.9 95 +15 +15 1021.2 993.6
штиль 0 10 км местами туман поземный 9/3 600 м
[Cb cap Ac lent Ci fib]
+15.2 +14.2 94 +15 +15 1021.8 994.2 +14.2
С 3 20 км 9/3 600 м
[Sc Ac As]
+19.2 +17.0 87 +21 +23 комфорт 1022.3 995.1 +14.2
С 2 20 км 9/4 600 м
[Sc Ac lent]
+21.4 +18.3 83 +26 +28 душно 1023.2 996.2
СЗ 2 20 км 9/6 700 м
[Cb cap Ac lent]
+24.8 +17.5 64 +29 +31 душно 1023.4 996.6
СЗ 3 20 км 3/3 1000 м
[Cu hum Ci fib]
+24.9 +15.1 54 +28 +29 жарко 1023.2 996.5
С 1 20 км 3/0
[Ci fib]
+17.4 +14.3 82 +18 +18 1024.9 997.4 +25.6
С 1 20 км ясно +13.1 +12.3 95 +13 +13 1026.3 998.4
С 1 20 км ясно +12.1 +11.2 94 +12 +12 1026.8 998.8
С 1 20 км ясно +11.9 +11.1 95 +12 +12 1027.3 999.2 +10.9
СЗ 1 20 км 6/0
[Ac trans Cc]
+20.6 +14.2 67 +24 +30 комфорт 1027.0 999.8 +10.9
СЗ 1 20 км 4/3 1000 м
[Cu hum Ci sp]
+24.0 +12.1 47 +26 +36 жарко 1026.4 999.5
С 3 20 км 8/6 750 м
[Cb cap Ci fib]
+24.1 +14.1 54 +27 +30 жарко 1025.7 998.8
С 2 20 км 9/3 600 м
[Cb cap Ac As]
+22.7 +14.3 59 +26 +27 жарко 1025.3 998.3
С 1 20 км 9/3 600 м
[Cb cap Ac As]
+19.3 +15.4 78 +22 +22 комфорт 1025.5 998.2 +25.2
С 1 10 км 9/0
[Ac und]
+16.2 +14.9 92 +17 +17 1025.6 998.0
С 1 10 км 9/0
[Ac und]
+15.6 +14.3 92 +16 +16 1025.6 997.9
С 1 10 км местами туман поземный 8/0
[Ac lent Ci fib]
+15.1 +14.2 94 +16 +16 1025.3 997.6 +15.1
С 1 20 км 9/0
[Ac und]
+19.1 +15.2 78 +22 +24 комфорт 1025.1 997.8 +15.0
С 2 20 км 9/8 700 м
[Cb cap Ac lent]
+22.1 +13.8 59 +25 +27 комфорт 1024.0 997.0
С 2 20 км 8/8 700 м
[Cb cap Ac lent]
+25.0 +12.8 47 +27 +29 жарко 1022.3 995.5
С 2 20 км 3/0
[Ac lent]
+24.3 +13.2 50 +26 +28 жарко 1020.9 994.2
СЗ 1 20 км 1/0
[Ci fib]
+16.9 +14.8 87 +18 +18 1021.1 993.7 +25.3
штиль 0 10 км 3/0
[Ci fib]
+13.8 +13.0 95 +13 +13 1020.6 992.9
С 1 10 км 9/0
[Ac und]
+15.4 +14.4 94 +16 +16 1020.0 992.5
С 1 20 км 9/3 600 м
[Cb cap Ac lent Ci fib]
+16.0 +14.6 91 +17 +17 1019.8 992.3 +13.4
С 1 20 км 3/0
[Ac cast]
+22.0 +15.0 64 +25 +31 комфорт 1019.2 992.3 +13.4
СЗ 2 20 км 9/9 900 м
[Cu med, cong]
+24.0 +13.8 53 +26 +28 жарко 1018.6 991.9
СЗ 2 20 км 9/9 750 м
[Cb cap]
+24.0 +13.7 53 +26 +27 жарко 1017.5 990.8
СЗ 2
{10}
20 км {ливн. дождь} 9/8 700 м
[Cb cap Ac trans Ci fib]
+21.9 +15.9 69 +26 +26 душно 1017.0 990.2 4
С 1 10 км {ливн. дождь} 8/3 600 м
[Cb cap Ac trans Ci fib]
+17.5 +15.5 88 +19 +19 1017.6 990.3 +25.4 4
штиль 0 10 км 9/0
[Ac lent Ci fib]
+15.4 +14.4 94 +15 +15 1017.6 990.2
СЗ 1 10 км 9/0
[Ac lent Ci fib]
+15.6 +14.8 95 +16 +16 1017.7 990.3
С 1 4000 м дымка 9/0
[Ac lent]
+14.6 +14.0 96 +15 +15 1017.7 990.2 +14.1
С 1 20 км 9/0
[Ac lent Ci fib]
+20.4 +16.3 77 +24 +27 комфорт 1017.4 990.4 +14.1
С 2 20 км 8/3 600 м
[Cu hum Ci fib]
+24.1 +15.4 58 +27 +35 жарко 1016.6 990.0
СЗ 2 20 км 8/6 660 м
[Cb cap Ci fib]
+24.9 +14.0 51 +27 +31 жарко 1015.3 988.8
С 2 20 км 9/4 600 м
[Cb cap Ac lent Ci fib]
+23.1 +16.1 65 +28 +28 душно 1015.0 988.3
ЮЗ 1 10 км в посл. час ливневой дождь 9/8 600 м
[Cb cap Ac As]
+16.7 +14.8 89 +18 +18 1016.3 989.0 +26.5 0.1
СЗ 1 10 км 3/0
[Ac trans Ci fib]
+14.1 +13.3 95 +14 +14 1016.1 988.5
штиль 0 4000 м дымка 3/0
[Ac trans Ci fib]
+11.9 +11.2 95 +11 +11 1016.1 988.3
СЗ 1 1000 м дымка 9/8 660 м
[Cb cap Ac As]
+12.8 +12.1 96 +13 +13 1015.7 988.0 +10.5 0.1
С 2 500 м туман ?/? +15.5 +15.5 100 +15 +15 1015.7 988.3 +10.5
С 3 20 км {туман} 9/8 700 м
[Cb cap Ac lent]
+17.7 +11.9 69 +18 +19 1016.1 988.9
СЗ 3 20 км {туман} 8/8 700 м
[Cb cap]
+19.9 +11.5 58 +22 +23 комфорт 1016.0 988.9
С 4 20 км 6/0
[Ac lent]
+17.5 +8.4 55 +17 +18 1016.6 989.3
С 2 20 км 9/0
[Ac und]
+12.8 +10.0 83 +12 +12 1017.5 989.8 +20.4
СЗ 2 20 км 6/0
[Ac lent]
+11.7 +10.2 91 +11 +11 1017.1 989.3
С 2 20 км 6/0
[Ac lent Ci fib]
+11.0 +9.5 90 +10 +10 1017.0 989.1
Местоположение метеостанции Ельня (Смоленская область, Россия): широта 54.57 долгота 33.17 высота над уровнем моря 233 м.
В архиве по умолчанию представлена погода в Ельне за последнюю неделю. Архивные данные за месяц целиком и за предыдущие месяцы, начиная с января 2011 года, Вы можете получить, выбрав интересующий диапазон дат из раскрывающегося списка и нажав кнопку "Найти!".
*Определитесь, кто Вы:
Внимание! Время в таблицах - всемирное. Для получения местного времени необходимо прибавить поправку, которая равна 3 ч.
Смотрите также архив погоды в соседних городах и на ближайших метеорологических станциях:
Партнеры нашего сайта:      
Пояснения к столбцам:
  • Ветер - указаны скорость ветра в м/с - средняя за 10 мин, порывы в срок и между сроками (в фигурных скобках) и направление, откуда дует ветер: С - северный,
  • СВ - северо-восточный, В - восточный, ЮВ - юго-восточный, Ю - южный, ЮЗ - юго-западный, З - западный, СЗ - северо-западный.
  • Видимость - горизонтальная дальность видимости в метрах или километрах. При видимости от 1 до 10 км при отсутствии осадков обычно наблюдается дымка, при ухудшении видимости до 1 км и менее - туман. В сухую погоду видимость может ухудшаться дымом, пылью или мглою.
  • Явления - указаны атмосферные явления, наблюдавшиеся в срок или в последний час перед сроком; фигурными скобками обозначены явления, наблюдавшиеся между сроками (за 1-3 часа до срока); квадратными скобками обозначены град или гололедные отложения с указанием их диаметра в мм.
  • Облачность - указаны через наклонную черту общая и нижняя облачность в баллах и высота нижней границы облаков в метрах; квадратными скобками обозначены формы облаков: Ci - перистые, Cs - перисто-слоистые, Cc - перисто-кучевые, Ac - высококучевые, As - высокослоистые, Sc - слоисто-кучевые, Ns - слоисто-дождевые, Cu - кучевые, Cb - кучево-дождевые. Подробнее классификацию облаков см. в Атласе облаков (PDF).
  • T - Температура воздуха - температура, измеренная на высоте 2 м над землей.
  • Td - Температура точки росы - температура, при понижении до которой содержащийся в воздухе водяной пар достигнет насыщения.
  • f - Относительная влажность воздуха - влажноcть воздуха, измеренная на высоте 2 м над землей.
  • Te - Эффективная температура - температура, которую ощущает одетый по сезону человек в тени. Характеристика душности погоды. При расчете учитывается влияние влажности воздуха и скорости ветра на теплоощущения человека.
  • Tes - Эффективная температура на солнце - температура, которую ощущает человек, с поправкой на солнечный нагрев. Характеристика знойности погоды. Зависит от высоты солнца над горизонтом, облачности и скорости ветра. Ночью, в пасмурную погоду, а также при ветре 12 м/с и более поправка равна нулю.
  • P - Атмосферное давление - приведенное к уровню моря атмосферное давление.
  • Po - Атмосферное давление - измеренное на уровне метеостанции атмосферное давление.
  • Tmin - Минимальная температура - минимум температуры воздуха на высоте 2 м над землей.
  • Tmax - Максимальная температура - максимум температуры воздуха на высоте 2 м над землей.
  • R - Количество осадков - Количество выпавших осадков за период времени, мм. При наведении курсора мыши на число - период времени, за который выпало указанное количество осадков.
  • R24 - Количество осадков - Количество выпавших осадков за 24 часа, мм.
  • S - Снежный покров - Высота снежного покрова, см. При наведении курсора мыши на число - состояние снежного покрова и степень покрытия местности в баллах.